Location: Ferchesar
(52.6477°N, 12.4298°E)
Time: 09:58:30
(UTC+01:00)

Tiros 1 despin weight - Pass Details

Date: 10 December 2021
Orbit: 592 x 641 km, 48.2° (Epoch: 19 January)

Event Time Altitude Azimuth Distance (km) Brightness Sun altitude
Rises 11:15:12 0° 221° (SW) 2,852 ? 13.7°
Reaches altitude 10° 11:17:48 10° 208° (SSW) 1,943 ? 13.8°
Maximum altitude 11:21:26 25° 153° (SSE) 1,219 ? 13.9°
Drops below altitude 10° 11:25:03 10° 98° (E) 1,931 ? 13.9°
Sets 11:27:37 0° 85° (E) 2,830 ? 14.0°
